Regional Weather Roundup
Issued by NWS

Home | Current Version | Previous Version | Graphics & Text | Print | Product List | Glossary On
Versions: 1 2 3 4 5 6 7 8 9 10 11 12 13 14 15 16 17 18 19 20 21 22 23 24 25 26 27 28 29 30 31 32 33 34 35 36 37 38 39 40 41 42 43 44 45 46 47 48 49 50
000
ASUS43 KIND 280109
RWRIN

WEATHER ROUNDUP FOR INDIANA
NATIONAL WEATHER SERVICE INDIANAPOLIS IN
900 PM EDT MON APR 27 2015

NOTE: "FAIR" INDICATES FEW OR NO CLOUDS BELOW 12,000 FEET WITH NO
SIGNIFICANT WEATHER AND/OR OBSTRUCTIONS TO VISIBILITY.

* - STATION DOES NOT REPORT WEATHER SUCH AS PRECIPITATION OR FOG.

+ - STATION NOT QUALITY CONTROLLED BY THE NATIONAL WEATHER SERVICE.
    USE DATA WITH CAUTION...ESPECIALLY DEWPOINT AND RELATIVE
    HUMIDITY OBSERVATIONS.

INZ001>003-010>013-019-020-280200-
NORTHWEST INDIANA

CITY           SKY/WX    TMP DP  RH WIND       PRES   REMARKS
GARY /AIRPORT/ PTCLDY    43  32  65 N10       30.12S
KNOX *+        PTCLDY    43  23  45 N7        30.09S
LA PORTE +     CLEAR     44  35  70 N6        30.11R
MICHIGAN CITY+ PTCLDY    41  32  70 CALM      30.11F
MONTICELLO +   CLEAR     47  34  62 N7        30.08R
VALPARAISO     PTCLDY    41  33  73 N5        30.11R

$$

LMZ046-743>745-280200-
SOUTHERN LAKE MICHIGAN

STATION/POSITION TIME  TEMP    WIND        PRES    WAVE
                       AIR SEA DIR/SP/G            HT
                 (UTC) (F)     (DEG/KT/KT) (MB)    (FT)
BURNS HARBOR     0100   43      50/  9/ 11 1020.0S
MICHIGAN CITY    0100   42      40/ 12/ 14   N/A
5NW MICH CITY    0100   42 45   90/ 10/ 12   N/A     3

$$

INZ004-005-014>016-021>024-280200-
NORTH CENTRAL INDIANA

CITY           SKY/WX    TMP DP  RH WIND       PRES   REMARKS
ELKHART        CLEAR     48  32  53 N3        30.10R
GOSHEN         CLOUDY    48  36  63 N6        30.08R
LOGANSPORT +   PTCLDY    48  32  53 CALM      30.08R
PERU/GRISSOM   PTCLDY    45  36  71 N6        30.07R
ROCHESTER +    PTCLDY    50  36  57 CALM      30.08S
SOUTH BEND     CLEAR     45  34  65 N6        30.11R
WARSAW +       MOCLDY    46  36  66 N3        30.08R

$$

INZ006>009-017-018-025>027-280200-
NORTHEAST INDIANA

CITY           SKY/WX    TMP DP  RH WIND       PRES   REMARKS
ANGOLA *+      CLEAR     46  36  66 CALM      30.08R
AUBURN +       CLEAR     45  32  61 CALM      30.08S
FORT WAYNE     PTCLDY    46  34  62 NE8       30.08R
HUNTINGTON +   CLOUDY    48  36  62 NE5       30.07R

$$

INZ028-029-035-036-043>045-051>053-280200-
WEST CENTRAL INDIANA

CITY           SKY/WX    TMP DP  RH WIND       PRES   REMARKS
CRAWFORDSVL +  CLEAR     47  29  51 N8        30.08S
GREENCASTLE +  CLEAR     48  32  53 N8        30.07S
LAFAYETTE      CLEAR     48  33  56 N9        30.08R
TERRE HAUTE    CLEAR     51  36  56 NE8       30.07S

$$

INZ030>032-037>040-046>048-054>057-064-065-280200-
CENTRAL INDIANA

CITY           SKY/WX    TMP DP  RH WIND       PRES   REMARKS
CP ATTERBURY + CLOUDY    52  36  54 N6        30.05F
FISHERS *+     CLOUDY    48  39  71 N3        30.07
FRANKFORT +    CLEAR     47  36  65 NW5       30.08S
GREENWOOD *+   CLOUDY    52  34  50 N12       30.06R
INDIANAPOLIS   MOCLDY    51  34  52 N8        30.05R
-EAGLE CREEK   MOCLDY    51  35  54 N7        30.06S
KOKOMO *+      PTCLDY    46  36  66 NE6       30.07R
MARION +       CLOUDY    49  35  58 NE7       30.08R
MT COMFORT *+  CLOUDY    50  30  46 N9        30.06S
SHELBYVILLE    CLOUDY    54  38  54 N7        30.05R
ZIONSVILLE +   CLOUDY    49  37  62 N5        30.07S

$$

INZ033-034-041-042-049-050-058-059-280200-
EAST CENTRAL INDIANA

CITY           SKY/WX    TMP DP  RH WIND       PRES   REMARKS
MUNCIE         CLOUDY    50  36  58 NE9       30.06R

$$

INZ060-061-067>069-081>083-085>088-280200-
SOUTHWEST INDIANA

CITY           SKY/WX    TMP DP  RH WIND       PRES   REMARKS
EVANSVILLE     PTCLDY    58  38  47 N9        30.02R
HUNTINGBURG *+ CLEAR     55  36  47 N8        30.02R
WASHINGTON +   CLEAR     54  35  48 N9        30.03R

$$

INZ062-063-066-070>080-084-089>092-280200-
SOUTH CENTRAL AND SOUTHEAST INDIANA

CITY           SKY/WX    TMP DP  RH WIND       PRES   REMARKS
BEDFORD +      PTCLDY    52  34  50 N7        30.04
BLOOMINGTON    PTCLDY    51  36  56 N8        30.04F
MADISON *+     PTCLDY    52  36  54 N3        30.04S
NORTH VERNON + CLOUDY    52  39  62 N8        30.04S
SEYMOUR +      PTCLDY    54  37  54 N12       30.03S

$$



USA.gov is the U.S. government's official web portal to all federal, state and local government web resources and services.